Location: Allentsteig
(48.6833°N, 15.3167°E)
Time: 10:32:52
(UTC+00:00)

SPOT 3 Rocket - Pass Details

Date: 18 September 2020
Orbit: 780 x 794 km, 98.8° (Epoch: 24 October)

Event Time Altitude Azimuth Distance (km) Brightness Sun altitude
Exits shadow 18:22:58 19° 118° (ESE) 1,776 4.8 -13.5°
Maximum altitude 18:25:57 36° 64° (ENE) 1,235 4.2 -14.0°
Drops below altitude 10° 18:30:37 10° 0° (N) 2,346 6.3 -14.7°
Sets 18:33:06 0° 352° (N) 3,279 7.2 -15.1°
